Location: Chuathbaluk
(61.5726°N, 159.2454°W)
Time: 22:37:37
(UTC+00:00)

Transit 2A - Pass Details

Date: 30 November 2020
Orbit: 598 x 960 km, 66.7° (Epoch: 20 January)

Event Time Altitude Azimuth Distance (km) Brightness Sun altitude
Rises 08:21:08 0° 281° (WNW) 3,533 10.0 -44.8°
Reaches altitude 10° 08:23:50 10° 287° (WNW) 2,545 9.1 -45.0°
Enters shadow 08:24:17 12° 288° (WNW) 2,382 9.0 -45.0°
Maximum altitude 08:29:34 51° 3° (N) 1,032 - -45.4°
Drops below altitude 10° 08:34:46 10° 80° (E) 2,306 - -45.8°
Sets 08:37:06 0° 85° (E) 3,173 - -46.0°
